Weather History for Moffett NAS, CA

Change the Weather History Date:

Friday, February 10, 2012

  Actual Average Record
Temperature  
Mean Temperature 56 °F 53 °F  
Max Temperature 67 °F 61 °F 75 °F (1988)
Min Temperature 44 °F 45 °F 33 °F (1946)
Degree Days  
Heating Degree Days 9    
Month to date heating degree days 104  
Since 1 July heating degree days 1186  
Cooling Degree Days 0    
Month to date cooling degree days 0  
Year to date cooling degree days 0  
Growing Degree Days 6 (Base 50)    
Moisture  
Dew Point 46 °F    
Average Humidity 68    
Maximum Humidity 93    
Minimum Humidity 42    
Precipitation  
Precipitation 0.00 in 0.11 in 1.01 in (1992)
Month to date precipitation 0.09 1.04  
Year to date precipitation 1.12 3.79  
Since 1 July precipitation 2.89 8.84  
Sea Level Pressure  
Sea Level Pressure 30.17 in    
Wind  
Wind Speed 4 mph (West)    
Max Wind Speed 14 mph    
Max Gust Speed 20 mph    
Visibility 10 miles    
Events      
T = Trace of Precipitation, MM = Missing Value Source: NWS Daily Summary

Daily Weather History Graph

Daily Weather History Graph

Search for Another Location

Airport:

Trip Planner

Search our weather history database for the weather conditions in past years. The results will help you decide how hot, cold, wet, or windy it might be!

Date:

Astronomy

Feb. 10, 2012 Rise Set
Actual Time 7:03 AM PST 5:42 PM PST
Civil Twilight 6:36 AM PST 6:09 PM PST
Nautical Twilight 6:05 AM PST 6:39 PM PST
Astronomical Twilight 5:35 AM PST 7:10 PM PST
Moon 9:20 PM PST (2/10) 8:20 AM PST (2/10)
Length of Visible Light 11h 32m
Length of Day
10h 38m
Waning Gibbous, 89% of the Moon is Illuminated
Feb 10
Waning Gibbous
Feb 14
Last Quarter
Feb 21
New
Feb 29
First Quarter
Mar 8
Full

Hourly Weather History & Observations

Time (PST) Temp. Dew Point Humidity Pressure Visibility Wind Dir Wind Speed Gust Speed Precip Events Conditions
12:56 AM 54.0 °F 46.9 °F 77% 30.22 in 10.0 mi SSE 5.8 mph - N/A   Clear
1:56 AM 50.0 °F 45.0 °F 83% 30.21 in 10.0 mi Calm Calm - N/A   Clear
2:56 AM 48.9 °F 46.0 °F 90% 30.20 in 10.0 mi Calm Calm - N/A   Clear
3:56 AM 46.9 °F 44.1 °F 90% 30.21 in 10.0 mi Calm Calm - N/A   Clear
4:56 AM 46.9 °F 43.0 °F 86% 30.21 in 10.0 mi Calm Calm - N/A   Clear
6:56 AM 46.0 °F 43.0 °F 89% 30.21 in 10.0 mi Calm Calm - N/A   Clear
7:56 AM 48.0 °F 42.1 °F 80% 30.21 in 10.0 mi Calm Calm - N/A   Mostly Cloudy
8:56 AM 52.0 °F 42.1 °F 69% 30.22 in 10.0 mi Calm Calm - N/A   Scattered Clouds
9:56 AM 57.9 °F 44.1 °F 60% 30.22 in 10.0 mi East 5.8 mph - N/A   Mostly Cloudy
10:56 AM 63.0 °F 43.0 °F 48% 30.21 in 10.0 mi Calm Calm - N/A   Overcast
11:56 AM 64.9 °F 43.0 °F 45% 30.19 in 10.0 mi Calm Calm - N/A   Partly Cloudy
12:56 PM 66.0 °F 43.0 °F 43% 30.17 in 10.0 mi North 8.1 mph - N/A   Overcast
1:56 PM 64.0 °F 53.1 °F 67% 30.15 in 10.0 mi WNW 6.9 mph - N/A   Overcast
2:56 PM 64.0 °F 52.0 °F 65% 30.14 in 10.0 mi WNW 9.2 mph 19.6 mph N/A   Overcast
3:56 PM 63.0 °F 50.0 °F 63% 30.13 in 10.0 mi SW 9.2 mph - N/A   Partly Cloudy
4:56 PM 62.1 °F 50.0 °F 65% 30.13 in 10.0 mi West 8.1 mph - N/A   Mostly Cloudy
5:56 PM 57.9 °F 48.9 °F 72% 30.13 in 10.0 mi West 10.4 mph - N/A   Overcast
6:56 PM 57.0 °F 46.9 °F 69% 30.13 in 10.0 mi West 9.2 mph - N/A   Clear
7:56 PM 55.0 °F 46.9 °F 74% 30.13 in 10.0 mi Calm Calm - N/A   Clear
8:56 PM 55.9 °F 46.9 °F 72% 30.13 in 10.0 mi West 4.6 mph - N/A   Clear
9:56 PM 54.0 °F 48.0 °F 80% 30.14 in 10.0 mi West 6.9 mph - N/A   Mostly Cloudy
10:56 PM 54.0 °F 48.0 °F 80% 30.13 in 10.0 mi WSW 9.2 mph - N/A   Clear
11:56 PM 53.1 °F 46.9 °F 80% 30.11 in 10.0 mi Calm Calm - N/A   Clear